Weather History for Tri-Cities, TN

Change the Weather History Date:

Friday, January 25, 2008

  Actual Average Record
Temperature  
Mean Temperature 22 °F 35 °F  
Max Temperature 34 °F 46 °F 79 °F (1950)
Min Temperature 9 °F 25 °F -4 °F (1963)
Degree Days  
Heating Degree Days 43 30  
Month to date heating degree days 766 750  
Since 1 July heating degree days 2183 2479  
Cooling Degree Days 0 0  
Month to date cooling degree days 0 0  
Year to date cooling degree days 0 0  
Moisture  
Dew Point 8 °F    
Average Humidity 58    
Maximum Humidity 80    
Minimum Humidity 35    
Precipitation  
Precipitation 0.00 in 0.11 in 1.06 in (1978)
Month to date precipitation 3.25 2.71  
Year to date precipitation 3.25 2.71  
Snow  
Snow 0.00 in 0.10 in - ()
Month to date snowfall 3.8 3.8  
Since 1 July snowfall 3.9 6.5  
Snow Depth 0.00 in    
Sea Level Pressure  
Sea Level Pressure 30.46 in    
Wind  
Wind Speed 2 mph (North)    
Max Wind Speed 13 mph    
Max Gust Speed 15 mph    
Visibility 10 miles    
Events      
T = Trace of Precipitation, MM = Missing Value Source: NWS Daily Summary

Daily Weather History Graph

Daily Weather History Graph

Search for Another Location

Airport:

Trip Planner

Search our weather history database for the weather conditions in past years. The results will help you decide how hot, cold, wet, or windy it might be!

Date:

Astronomy

Jan. 25, 2008 Rise Set
Actual Time 7:36 AM EST 5:47 PM EST
Civil Twilight 7:08 AM EST 6:15 PM EST
Nautical Twilight 6:37 AM EST 6:46 PM EST
Astronomical Twilight 6:07 AM EST 7:17 PM EST
Moon 9:21 PM EST (1/25) 9:22 AM EST (1/25)
Length of Visible Light 11h 06m
Length of Day
10h 11m
Waning Gibbous, 89% of the Moon is Illuminated
Jan 25
Waning Gibbous
Jan 30
Last Quarter
Feb 6
New
Feb 13
First Quarter
Feb 20
Full

Hourly Weather History & Observations

Time (EST) Temp. Windchill Dew Point Humidity Pressure Visibility Wind Dir Wind Speed Gust Speed Precip Events Conditions
12:53 AM 14.0 °F 3.9 °F 1.0 °F 56% 30.49 in 10.0 mi NNW 6.9 mph - N/A   Clear
1:53 AM 12.9 °F 5.2 °F 1.9 °F 62% 30.49 in 10.0 mi North 4.6 mph - N/A   Clear
2:53 AM 12.0 °F - 1.9 °F 64% 30.51 in 10.0 mi Calm Calm - N/A   Clear
3:53 AM 12.0 °F 5.9 °F 1.9 °F 64% 30.53 in 10.0 mi NNW 3.5 mph - N/A   Clear
4:53 AM 10.0 °F 3.6 °F 3.0 °F 73% 30.55 in 10.0 mi North 3.5 mph - N/A   Clear
5:53 AM 10.9 °F - 3.0 °F 70% 30.55 in 10.0 mi Calm Calm - N/A   Clear
6:53 AM 10.0 °F - 3.9 °F 76% 30.56 in 10.0 mi Calm Calm - N/A   Clear
7:53 AM 9.0 °F - 3.9 °F 80% 30.55 in 10.0 mi Calm Calm - N/A   Clear
8:53 AM 14.0 °F 8.2 °F 5.0 °F 67% 30.57 in 10.0 mi NE 3.5 mph - N/A   Clear
9:53 AM 17.1 °F - 6.1 °F 62% 30.58 in 10.0 mi Calm Calm - N/A   Partly Cloudy
10:53 AM 21.0 °F - 6.1 °F 53% 30.56 in 10.0 mi Calm Calm - N/A   Partly Cloudy
11:53 AM 24.1 °F 18.2 °F 7.0 °F 48% 30.52 in 10.0 mi ENE 4.6 mph - N/A   Partly Cloudy
12:53 PM 27.0 °F 23.0 °F 9.0 °F 47% 30.48 in 10.0 mi SE 3.5 mph - N/A   Scattered Clouds
1:53 PM 30.0 °F - 8.1 °F 40% 30.45 in 10.0 mi Calm Calm - N/A   Scattered Clouds
2:53 PM 33.8 °F - 8.6 °F 35% 30.37 in 10.0 mi Calm Calm - N/A   Scattered Clouds
3:53 PM 34.0 °F 29.8 °F 8.1 °F 34% 30.43 in 10.0 mi West 4.6 mph - N/A   Scattered Clouds
4:53 PM 33.1 °F 30.0 °F 8.1 °F 35% 30.44 in 10.0 mi SSW 3.5 mph - N/A   Scattered Clouds
5:53 PM 32.0 °F 28.7 °F 10.9 °F 42% 30.42 in 10.0 mi South 3.5 mph - N/A   Mostly Cloudy
6:53 PM 30.9 °F - 12.0 °F 46% 30.39 in 10.0 mi Calm Calm - N/A   Mostly Cloudy
7:53 PM 28.9 °F - 16.0 °F 58% 30.38 in 10.0 mi Calm Calm - N/A   Scattered Clouds
8:53 PM 28.9 °F - 17.1 °F 61% 30.36 in 10.0 mi Calm Calm - N/A   Mostly Cloudy
9:53 PM 28.9 °F - 17.1 °F 61% 30.34 in 10.0 mi Calm Calm - N/A   Overcast
10:53 PM 28.9 °F - 18.0 °F 64% 30.32 in 10.0 mi Calm Calm - N/A   Mostly Cloudy
11:53 PM 28.9 °F - 17.1 °F 61% 30.30 in 10.0 mi Calm Calm - N/A   Overcast